GSAT0217 (GALILEO 21)

Last updated on Mon Sep 21 2026 00:02:49 GMT+0000 (Coordinated Universal Time)

1 43057U 17079C 26262.96708460 .00000016 00000+0 00000+0 0 9996 2 43057 55.0501 218.8978 0003944 307.3513 52.5857 1.70473993 54602
UTC large
Height (km)
Speed (km/s)
/
Latitude / Longitude
Inclination (degrees)
Orbital Period (minutes)
Azimuth
Elevation
Range (km)
Doppler Factor

Next 0 passes for location: London (51.5072 / 0.1276)

No passes found over London.
GSAT0217 (GALILEO 21)